Retour au catalogue

SL-16 R/B

ActifLEO
NORAD 17974·ROCKET BODY·🇷🇺 Russia

Lancé May 13, 1987 depuis Baikonur Cosmodrome

Loading…

Prochains Passages (prochaines 24 heures)

TLE

FraisSource: Space-Track

Époque: Sep 14, 2026, 13:13 UTC

1 17974U 87041B   26257.55117689 -.00000125  00000-0 -37740-4 0  9997
2 17974  71.0108 354.6392 0016141 275.6271  95.1648 14.17665040 34860

Suivez SL-16 R/B en temps réel avec AllMySat

Download on the App Store